TimeCDT,TemperatureF,Dew PointF,Humidity,Sea Level PressureIn,VisibilityMPH,Wind Direction,Wind SpeedMPH,Gust SpeedMPH,PrecipitationIn,Events,Conditions,WindDirDegrees,DateUTC
12:53 AM,73.9,72.0,93,30.01,10.0,SE,4.6,-,N/A,,Clear,140,2013-09-20 05:53:00
1:53 AM,73.9,72.0,93,30.00,10.0,SE,5.8,-,N/A,,Clear,140,2013-09-20 06:53:00
2:53 AM,73.9,72.0,93,29.99,10.0,SE,5.8,-,N/A,,Clear,140,2013-09-20 07:53:00
3:53 AM,73.9,72.0,93,29.98,10.0,SSE,3.5,-,N/A,,Clear,150,2013-09-20 08:53:00
4:53 AM,73.9,73.0,97,29.97,9.0,SE,3.5,-,N/A,,Clear,140,2013-09-20 09:53:00
5:53 AM,75.0,73.0,94,29.96,9.0,SE,5.8,-,N/A,,Mostly Cloudy,140,2013-09-20 10:53:00
6:25 AM,75.2,73.4,94,29.94,9.0,SE,5.8,-,N/A,,Overcast,140,2013-09-20 11:25:00
6:53 AM,75.0,73.9,96,29.96,8.0,SSE,4.6,-,N/A,,Overcast,160,2013-09-20 11:53:00
7:39 AM,75.2,73.4,94,29.94,7.0,SE,6.9,-,N/A,,Scattered Clouds,140,2013-09-20 12:39:00
7:53 AM,75.9,73.9,94,29.96,8.0,SE,5.8,-,N/A,,Partly Cloudy,140,2013-09-20 12:53:00
8:21 AM,77.0,75.2,94,29.94,10.0,SE,5.8,-,N/A,,Mostly Cloudy,140,2013-09-20 13:21:00
8:53 AM,77.0,75.0,94,29.96,10.0,SSE,5.8,-,N/A,,Mostly Cloudy,160,2013-09-20 13:53:00
9:53 AM,79.0,75.0,88,29.96,10.0,South,6.9,-,N/A,,Mostly Cloudy,180,2013-09-20 14:53:00
10:00 AM,80.6,75.2,84,29.94,10.0,South,10.4,-,N/A,,Overcast,170,2013-09-20 15:00:00
10:09 AM,80.6,75.2,84,29.94,10.0,South,9.2,-,N/A,,Overcast,170,2013-09-20 15:09:00
10:53 AM,82.0,75.9,82,29.95,10.0,South,9.2,-,N/A,,Mostly Cloudy,170,2013-09-20 15:53:00
11:33 AM,82.4,75.2,79,29.92,10.0,South,8.1,-,N/A,,Mostly Cloudy,180,2013-09-20 16:33:00
11:53 AM,84.9,75.9,74,29.93,10.0,South,9.2,-,N/A,,Mostly Cloudy,170,2013-09-20 16:53:00
12:08 PM,84.2,75.2,74,29.90,10.0,South,9.2,-,N/A,,Scattered Clouds,170,2013-09-20 17:08:00
12:53 PM,84.9,75.0,72,29.90,10.0,SSE,10.4,-,N/A,,Mostly Cloudy,150,2013-09-20 17:53:00
1:17 PM,86.0,75.2,70,29.87,10.0,South,8.1,-,N/A,,Mostly Cloudy,190,2013-09-20 18:17:00
1:53 PM,86.0,73.9,67,29.87,10.0,South,9.2,-,N/A,,Mostly Cloudy,180,2013-09-20 18:53:00
2:53 PM,86.0,73.9,67,29.83,10.0,South,11.5,-,0.00,Rain,Light Rain,180,2013-09-20 19:53:00
3:53 PM,84.9,75.0,72,29.82,10.0,South,5.8,-,0.00,,Scattered Clouds,190,2013-09-20 20:53:00
4:53 PM,82.9,73.9,74,29.81,10.0,South,8.1,-,N/A,,Clear,180,2013-09-20 21:53:00
5:53 PM,75.9,73.0,91,29.82,5.0,SW,5.8,-,0.04,Rain,Rain,220,2013-09-20 22:53:00
6:00 PM,75.2,73.4,94,29.80,5.0,Variable,5.8,-,0.01,Rain-Thunderstorm,Rain,0,2013-09-20 23:00:00
6:15 PM,75.2,73.4,94,29.81,9.0,SW,4.6,-,0.02,Rain,Light Rain,230,2013-09-20 23:15:00
6:43 PM,75.2,73.4,94,29.82,4.0,Calm,Calm,-,0.05,Rain,Heavy Rain,0,2013-09-20 23:43:00
6:53 PM,75.0,73.0,94,29.84,8.0,Calm,Calm,-,0.06,Rain,Rain,0,2013-09-20 23:53:00
7:22 PM,75.2,73.4,94,29.81,10.0,Calm,Calm,-,0.01,Rain,Light Rain,0,2013-09-21 00:22:00
7:53 PM,75.0,73.0,94,29.83,10.0,Calm,Calm,-,0.01,Rain,Light Rain,0,2013-09-21 00:53:00
8:53 PM,75.0,73.9,96,29.84,10.0,Calm,Calm,-,0.01,Rain,Light Rain,0,2013-09-21 01:53:00
9:23 PM,75.2,75.2,100,29.81,10.0,ESE,4.6,-,0.00,Rain,Light Rain,110,2013-09-21 02:23:00
9:43 PM,75.2,73.4,94,29.81,10.0,SE,5.8,-,0.00,Rain,Light Rain,130,2013-09-21 02:43:00
9:53 PM,75.0,73.9,96,29.83,6.0,SE,6.9,-,0.02,Rain,Heavy Rain,130,2013-09-21 02:53:00
10:29 PM,75.2,73.4,94,29.82,1.8,WNW,8.1,-,0.13,Rain,Heavy Rain,300,2013-09-21 03:29:00
10:31 PM,75.2,73.4,94,29.82,1.2,NW,5.8,-,0.15,Rain,Heavy Rain,310,2013-09-21 03:31:00
10:39 PM,75.2,73.4,94,29.82,0.8,West,8.1,-,0.42,Rain,Heavy Rain,280,2013-09-21 03:39:00
10:44 PM,73.4,73.4,100,29.82,0.5,Variable,4.6,-,0.77,Fog-Rain,Heavy Rain,0,2013-09-21 03:44:00
10:53 PM,73.9,73.0,97,29.84,0.5,West,5.8,-,0.94,Fog-Rain,Heavy Rain,260,2013-09-21 03:53:00
11:05 PM,73.4,73.4,100,29.82,1.0,Calm,Calm,-,0.16,Rain,Heavy Rain,0,2013-09-21 04:05:00
11:11 PM,73.4,73.4,100,29.81,2.0,WNW,3.5,-,0.18,Rain,Heavy Rain,290,2013-09-21 04:11:00
11:19 PM,73.4,73.4,100,29.81,4.0,Calm,Calm,-,0.21,Rain,Rain,0,2013-09-21 04:19:00
11:53 PM,73.0,72.0,96,29.83,8.0,Calm,Calm,-,0.26,Rain,Light Rain,0,2013-09-21 04:53:00